TimeEDT,TemperatureF,Dew PointF,Humidity,Sea Level PressureIn,VisibilityMPH,Wind Direction,Wind SpeedMPH,Gust SpeedMPH,PrecipitationIn,Events,Conditions,WindDirDegrees,DateUTC
12:52 AM,48.9,35.1,59,29.80,10.0,NNW,3.5,-,N/A,,Clear,330,2013-10-23 04:52:00
1:52 AM,45.0,35.1,68,29.81,10.0,Calm,Calm,-,N/A,,Mostly Cloudy,0,2013-10-23 05:52:00
2:52 AM,41.0,34.0,76,29.80,10.0,NNW,3.5,-,N/A,,Partly Cloudy,330,2013-10-23 06:52:00
3:52 AM,39.0,33.1,79,29.80,10.0,Calm,Calm,-,N/A,,Clear,0,2013-10-23 07:52:00
4:52 AM,41.0,35.1,79,29.79,10.0,Calm,Calm,-,N/A,,Mostly Cloudy,0,2013-10-23 08:52:00
5:52 AM,39.0,33.1,79,29.78,10.0,Calm,Calm,-,N/A,,Mostly Cloudy,0,2013-10-23 09:52:00
6:52 AM,37.0,33.1,86,29.76,10.0,Calm,Calm,-,N/A,,Clear,0,2013-10-23 10:52:00
7:52 AM,36.0,32.0,86,29.76,10.0,Calm,Calm,-,N/A,,Clear,0,2013-10-23 11:52:00
8:52 AM,48.0,36.0,63,29.76,-9999.0,North,-9999.0,-,N/A,,Unknown,0,2013-10-23 12:52:00
9:52 AM,-9999,-9999,N/A,29.75,-9999.0,NW,5.8,-,N/A,,Clear,310,2013-10-23 13:52:00
12:52 PM,52.0,35.1,53,29.67,10.0,North,3.5,-,N/A,,Unknown,360,2013-10-23 16:52:00
1:52 PM,52.0,34.0,50,29.64,10.0,North,4.6,-,N/A,,Overcast,350,2013-10-23 17:52:00
2:52 PM,51.1,35.1,54,29.61,10.0,North,3.5,-,N/A,,Overcast,350,2013-10-23 18:52:00
3:52 PM,51.1,36.0,56,29.60,10.0,North,3.5,-,N/A,,Overcast,350,2013-10-23 19:52:00
4:52 PM,48.9,33.1,54,29.61,10.0,North,5.8,-,0.00,Rain,Light Rain,350,2013-10-23 20:52:00
5:52 PM,45.0,41.0,86,29.62,10.0,Calm,Calm,-,0.02,Rain,Light Rain,0,2013-10-23 21:52:00
6:52 PM,46.0,39.0,76,29.63,10.0,SSE,3.5,-,0.01,,Overcast,160,2013-10-23 22:52:00
7:52 PM,45.0,39.0,80,29.63,10.0,Calm,Calm,-,0.00,,Overcast,0,2013-10-23 23:52:00
8:52 PM,44.1,39.0,82,29.62,10.0,Calm,Calm,-,N/A,,Overcast,0,2013-10-24 00:52:00
9:52 PM,42.1,39.0,89,29.63,10.0,Calm,Calm,-,N/A,,Scattered Clouds,0,2013-10-24 01:52:00
10:52 PM,43.0,37.9,82,29.63,10.0,SW,4.6,-,N/A,,Overcast,220,2013-10-24 02:52:00
11:52 PM,44.1,37.9,79,29.63,10.0,WSW,4.6,-,N/A,,Overcast,250,2013-10-24 03:52:00